Regional Weather Roundup
Issued by NWS

Home | Current Version | Previous Version | Graphics & Text | Print | Product List | Glossary On
Versions: 1 2 3 4 5 6 7 8 9 10 11 12 13 14 15 16 17 18 19 20 21 22 23 24 25 26 27 28 29 30 31 32 33 34 35 36 37 38 39 40 41 42 43 44 45 46 47 48 49 50
000
ASUS43 KMKX 262211
RWRWI

WISCONSIN REGIONAL WEATHER ROUNDUP
NATIONAL WEATHER SERVICE MILWAUKEE/SULLIVAN WI
400 PM CST WED NOV 26 2014

NOTE: "FAIR" INDICATES FEW OR NO CLOUDS BELOW 12,000 FEET WITH NO
SIGNIFICANT WEATHER AND/OR OBSTRUCTIONS TO VISIBILITY.

WIZ001-002-006>008-014>016-023>028-262300-
NORTHWEST WISCONSIN

CITY           SKY/WX    TMP DP  RH WIND       PRES   REMARKS
SUPERIOR ARPT  PTCLDY    19   9  63 N10       30.28R WCI   8
ASHLAND        CLOUDY    22  15  75 NW9       30.24R WCI  12
HAYWARD        CLOUDY    21  16  81 VRB5      30.21R WCI  15
SIREN          MOCLDY    23  14  68 N7        30.24R WCI  15
CUMBERLAND     FLURRIES  23  18  80 N8        30.21R WCI  14
RICE LAKE      CLOUDY    25  17  72 NW8       30.22R WCI  16
CHETEK         CLOUDY    24  17  74 NW7       30.20R WCI  16
LADYSMITH      CLOUDY    25  20  82 NW6       30.19R WCI  18
EAU CLAIRE     LGT SNOW  24  20  84 NW5       30.20R FOG     WCI  18
MENOMONIE      MIX PCPN  25  22  85 NW6       30.21R WCI  18
NEW RICHMOND   CLOUDY    25  17  71 N9        30.23R WCI  15
OSCEOLA        CLOUDY    26  18  71 N8        30.27R WCI  17
$$

WIZ003>005-009-010-017-018-262300-
NORTH CENTRAL WISCONSIN

CITY           SKY/WX    TMP DP  RH WIND       PRES   REMARKS
MANITOWISH WTR LGT SNOW  21  19  93 NW7       30.12R WCI  13
ARBOR VITAE    LGT SNOW  23  20  87 NW3       30.12R VSB 1
WOODRUFF       LGT SNOW  23  20  87 NW3       30.12R VSB 1
RHINELANDER    LGT SNOW  22  18  85 NW3       30.12R FOG
EAGLE RIVER    LGT SNOW  21  17  82 W3        30.11R
LAND O LAKES   LGT SNOW  23  20  89 W3        30.12R
PHILLIPS       LGT SNOW  22  18  86 NW5       30.14R WCI  15
TOMAHAWK       LGT SNOW  23  19  86 CALM      30.14R
MEDFORD        LGT SNOW  23  20  89 NW3       30.14R
MERRILL        LGT SNOW  24  19  82 NW5       30.14R WCI  18
$$

WIZ029-030-035-036-043>047-262300-
CENTRAL WISCONSIN

CITY           SKY/WX    TMP DP  RH WIND       PRES   REMARKS
WAUSAU         LGT SNOW  24  19  81 W7        30.13R WCI  16
MOSINEE        MOCLDY    23  21  93 NW5       30.15R WCI  17
MARSHFIELD     CLOUDY    26  16  65 NW8       30.15R WCI  18
STEVENS POINT  CLOUDY    21  18  89 CALM      30.16R
WAUPACA        MOCLDY    24  19  80 NW5       30.18R WCI  18
WAUTOMA        MOCLDY    23  18  81 NE5       30.17R WCI  17
WISC RAPIDS    CLOUDY    25  15  66 N6        30.18R WCI  18
CAMP DOUGLAS   MOCLDY    23  22  93 N2        30.17R
$$

WIZ011>013-019>022-031-037>040-048>050-262300-
NORTHEAST WISCONSIN

CITY           SKY/WX    TMP DP  RH WIND       PRES   REMARKS
ANTIGO         CLOUDY    21  18  86 CALM      30.12R
SHAWANO        CLOUDY    24  18  78 CALM      30.17R
OCONTO         PTCLDY    21  18  88 NW3       30.18R
STURGEON BAY   MOCLDY    23  16  74 CALM      30.16S
GREEN BAY      MOCLDY    22  17  81 NW5       30.18R HAZE    WCI  16
MANITOWOC      CLOUDY    25  22  88 N12       30.17R WCI  14
APPLETON       MOCLDY    21  19  93 NW7       30.16R FOG     WCI  13
CLINTONVILLE   MOCLDY    21  18  86 CALM      30.17R
OSHKOSH        MOCLDY    22  17  81 MISG      30.16R HAZE
$$

WIZ032>034-041-042-053>061-262300-
SOUTHWEST WISCONSIN

CITY           SKY/WX    TMP DP  RH WIND       PRES   REMARKS
LA CROSSE      CLOUDY    28  21  75 NW13      30.19R WCI  17
SPARTA         CLOUDY    27  19  70 CALM      30.19R
VIROQUA        CLOUDY    25  20  81 N5        30.14R WCI  19
BOSCOBEL       CLOUDY    25  19  78 VRB3      30.19R
PRAIRIE DU CHI CLOUDY    26  20  78 NE5       30.18R WCI  21
PLATTEVILLE    CLOUDY    26  23  88 N9        30.14R WCI  17
$$

WIZ056-057-062-063-064-067-068-262300-
SOUTH CENTRAL WISCONSIN

CITY           SKY/WX    TMP DP  RH WIND       PRES   REMARKS
REEDSBURG      CLOUDY    22  18  83 CALM      30.16R
BARABOO/DELLS  MOCLDY    20  17  86 CALM      30.16S
LONE ROCK      MOCLDY    26  17  68 NE3       30.18R
MINERAL POINT  CLOUDY    27  21  80 N9        30.13R FOG     WCI  17
MADISON        CLOUDY    20  16  84 N6        30.16R FOG     WCI  12
MIDDLETON      CLOUDY    22  18  84 N6        30.16R WCI  15
WATERTOWN      CLOUDY    20  19  97 NW6       30.15R FOG     WCI  12
MONROE         CLOUDY    25  23  93 N8        30.12R WCI  16
JANESVILLE     CLOUDY    27  21  80 N6        30.13R WCI  20
$$

WIZ051-052-058>065-066-070>072-262300-
SOUTHEAST WISCONSIN

CITY           SKY/WX    TMP DP  RH WIND       PRES   REMARKS
MILWAUKEE      CLOUDY    30  21  69 CALM      30.13R
WAUKESHA       CLOUDY    27  21  80 W5        30.14R WCI  21
MILWAUKEE/TIMM CLOUDY    28  19  69 CALM      30.14R
RACINE         CLOUDY    29  22  75 NW3       30.15R
BURLINGTON     CLOUDY    24  21  87 N3        30.13R
KENOSHA        CLOUDY    28  23  81 N6        30.12S HAZE    WCI  22
FOND DU LAC    MOCLDY    22  17  81 N5        30.16R WCI  16
SHEBOYGAN      CLOUDY    24  19  81 N7        30.15R WCI  16
WEST BEND      CLOUDY    28  21  74 N3        30.14R
JUNEAU         CLOUDY    23  19  84 NW3       30.16R
$$

LSZ147-162-262300-
LAKE SUPERIOR

STATION/POSITION TIME  TEMP    WIND        PRES    WAVE
                       AIR SEA DIR/SP/G            HT/PER
                 (UTC) (F)     (DEG/KT/KT) (MB)    (FT/S)
DEVILS ISLAND    2200   23     360/ 17/ 18 1025.3R
PORT WING        2100   23     330/ 11/ 16 1024.0R
SAXON HARBOR     2100   26     330/ 13/ 15 1022.4R
$$

LMZ867-665-643>646-262300-
LAKE MICHIGAN

STATION/POSITION TIME  TEMP    WIND        PRES    WAVE
                       AIR SEA DIR/SP/G            HT/PER
                 (UTC) (F)     (DEG/KT/KT) (MB)    (FT/S)
CHAMBERS ISLAND  2100   24     230/  2/  4 1021.7R
N MID LAKE BUOY  2150   28 42  280/  6/  8 1022.2R   1/ 3
NORTHPORT PIER   2200   25     270/  2/  8 1021.7R
SISTER BAY       2043          330/  3/  6   N/A
KEWAUNEE LAKESHO 2100   25     320/  6/  9 1020.4R
SHEBOYGAN LAKESH 2200   26 36  320/  9/ 11 1022.4R
PORT WASHINGTON  2100   31      20/  4/  7 1021.3
MILWAUKEE LAKESH 2100   30      10/  3/  5   N/A
S MID LAKE BUOY  2150   32 42  130/  6/  8 1021.1R   1/ 3
KENOSHA   LAKESH 2200   29     340/  7/  8 1020.3R
$$

TC  - TEMPERATURE IN CELSIUS
VSB - VISIBILITY IN STATUTE MILES
WCI - WIND CHILL INDEX
HX  - HEAT INDEX




USA.gov is the U.S. government's official web portal to all federal, state and local government web resources and services.